Regional Weather Roundup
Issued by NWS Nashville, TN

Home | Current Version | Previous Version | Text Only | Print | Product List | Glossary On
Versions: 1 2 3 4 5 6 7 8 9 10 11 12 13 14 15 16 17 18 19 20 21 22 23 24 25 26 27
000
ASUS44 KOHX 241410
RWROHX
MIDDLE TENNESSEE HOURLY WEATHER ROUNDUP
NATIONAL WEATHER SERVICE NASHVILLE TN
900 AM CDT TUE MAY 24 2022

NOTE: "FAIR" INDICATES FEW OR NO CLOUDS BELOW 12,000 FEET WITH
NO SIGNIFICANT WEATHER AND/OR OBSTRUCTIONS TO VISIBILITY.

* THESE REPORTS ARE NOT UNDER NWS QUALITY CONTROL AND MAY NOT
  REPORT WEATHER SUCH AS PRECIPITATION AND FOG.


TNZ005>011-023>034-057-059-062>066-078-080-241500
...NORTHERN MIDDLE TENNESSEE...

CITY           SKY/WX    TMP DP  RH WIND       PRES   REMARKS
CLARKSVILLE    CLOUDY    62  57  83 E5        30.11S
CROSSVILLE     CLOUDY    60  58  92 E3        30.15F
DICKSON        CLOUDY    61  59  94 VRB5      30.09R
LIVINGSTON     CLOUDY    59  59 100 CALM      30.14R FOG
NASHVILLE      CLOUDY    63  56  78 E7        30.12F
PORTLAND       CLOUDY    61  59  94 E6        30.12F
ROCKWOOD       CLOUDY    59  59 100 CALM      30.15S FOG
SMYRNA         CLOUDY    63  59  87 E7        30.13S
SPARTA         CLOUDY    63  61  94 CALM      30.13S
WEST NASHVILLE CLOUDY    63  59  88 E5        30.09F
$$
TNZ056-058-060-061-075>077-079-093>097-241500
...SOUTHERN MIDDLE TENNESSEE...

CITY           SKY/WX    TMP DP  RH WIND       PRES   REMARKS
COLUMBIA       CLOUDY    63  63 100 E6        30.08S
FAYETTEVILLE   CLOUDY    66  63  88 E6        30.12S
LAWRENCEBURG   CLOUDY    64  61  88 E7        30.07F
LEWISBURG      CLOUDY    63  61  94 SE5       30.11R
MCMINNVILLE    CLOUDY    63  59  88 E6        30.12S
MURFREESBORO   CLOUDY    63  59  88 E6        30.10S
PULASKI        CLOUDY    64  63  94 E6        30.08F
SHELBYVILLE    CLOUDY    63  61  94 E5        30.11S
TULLAHOMA      CLOUDY    63  61  94 CALM      30.12R
WINCHESTER     CLOUDY    64  63  94 VRB5      30.11S
$$


...KEY TO REMARKS...
VSB - VISIBILITY IN MILES
WCI - WIND CHILL INDEX
HX  - HEAT INDEX




USA.gov is the U.S. government's official web portal to all federal, state and local government web resources and services.